Regional Weather Roundup
Issued by NWS

Home | Current Version | Previous Version | Text Only | Print | Product List | Glossary On
Versions: 1 2 3 4 5 6 7 8 9 10 11 12 13 14 15 16 17 18 19 20 21 22 23 24 25 26 27 28 29 30 31 32 33 34 35 36 37 38 39 40 41 42 43 44 45 46 47 48 49 50
211
ASUS44 KLIX 210408
RWRLA
LOUISIANA WEATHER ROUNDUP
NATIONAL WEATHER SERVICE NEW ORLEANS LA
1000 PM CST WED NOV 20 2019

NOTE: "FAIR" INDICATES FEW OR NO CLOUDS BELOW 12,000 FEET WITH NO
      SIGNIFICANT WEATHER AND/OR OBSTRUCTIONS TO VISIBILITY.
      SKY/WX - SKY CONDITION AND SIGNIFICANT WEATHER.
      TMP - AIR TEMPERATURE.    DP   - DEWPOINT TEMPERATURE.
      RH  - RELATIVE HUMIDITY.  PRES - PRESSURE.
      HX  - HEAT INDEX.         WCI  - WIND CHILL INDEX.

*  THESE STATIONS ARE NOT NWS OR FAA STATIONS AND ARE NOT UNDER
   NWS QUALITY CONTROL.

LAZ040-048-061>063-065-066-069-210500-
SOUTHEAST LOUISIANA

CITY           SKY/WX    TMP DP  RH WIND       PRES   REMARKS
N.O. INTL ARPT FAIR      59  51  75 SE7       30.16S
N.O. LAKEFRONT FAIR      56  51  84 SE8       30.17S
N.O. DOWNTOWN* FAIR      62  52  69 VRB3      30.17S
RESERVE*       FAIR      56  47  71 S3        30.17R
SLIDELL        FAIR      48  44  86 CALM      30.16S
BATON ROUGE    FAIR      51  46  83 CALM      30.16S
BOOTHVILLE*    NOT AVBL
BELLE CHASSE*  FAIR      54  52  93 SE3       30.16S
BOGALUSA*      FAIR      45  42  88 CALM      30.17S
GALLIANO*      FAIR      59  56  89 CALM      30.16S
NEW ROADS*     FAIR      50  45  81 CALM      30.16S
GONZALES*      FAIR      53  50  91 CALM      30.17R
HAMMOND*       FAIR      50  48  93 CALM      30.17S
HOUMA*         FAIR      53  53  99 CALM      30.17R
PORT FOURCHON* CLEAR     68  63  83 SE9G16    30.15F

$$

LAZ041-044-053-054-210500-
SOUTHWEST LOUISIANA

CITY           SKY/WX    TMP DP  RH WIND       PRES   REMARKS
LAKE CHARLES   FAIR      61  52  72 SE9       30.11S
LAFAYETTE      FAIR      60  49  66 SE5       30.14R
PATTERSON      FAIR      58  56  93 E6        30.16S
SALT POINT       N/A     58  56  93 E5        30.14S
NEW IBERIA     FAIR      59  54  83 SE12      30.15R
CHENAULT AIRPK CLEAR     61  50  67 SE14G20   30.11S

$$

LAZ027-028-210500-
CENTRAL LOUISIANA

CITY           SKY/WX    TMP DP  RH WIND       PRES   REMARKS
FORT POLK      FAIR      63  47  57 SE15      30.08R
ALEXANDRIA INT FAIR      54  46  74 SE8       30.11R
ALEXANDRIA     FAIR      58  46  64 SE3       30.13R

$$

LAZ001-002-210500-
NORTHWEST LOUISIANA

CITY           SKY/WX    TMP DP  RH WIND       PRES   REMARKS
SHREVEPORT     PTCLDY    60  51  72 S8        30.07R
BARKSDALE AFB  MOCLDY    59  48  66 S8        30.07R
DTN SHREVEPORT CLEAR     65  49  56 S7        30.08R

$$

LAZ014-016-210500-
NORTHEAST LOUISIANA

CITY           SKY/WX    TMP DP  RH WIND       PRES   REMARKS
MONROE         FAIR      56  46  69 SE3       30.13R
TALLULAH       FAIR      52  41  66 SE5       30.16R

$$





USA.gov is the U.S. government's official web portal to all federal, state and local government web resources and services.